Simultaneous Nadir Overpasses (SNOs) Predictions

Prediction of SNOs between AURA and NPP Satellite Orbit:

Table of predicted SNOs for the next 14.0 days since TLE Epoch: 12/19/2020
Index Date (AURA) Time (AURA) Lat,Lon (AURA) SZA (AURA ) Date (NPP) Time (NPP) Lat,Lon (NPP) SZA (NPP ) Distance(km) Time Diff (sec)
1 12/21/2020 11:24:58 79.45, -94.78 115.42 12/21/2020 11:24:11 79.45, -94.87 115.48 2.07 47
2 12/21/2020 12:14:18 -79.72, 74.78 64.96 12/21/2020 12:14:48 -79.72, 74.78 64.98 0.13 30
3 12/24/2020 03:41:24 79.58, 21.94 115.29 12/24/2020 03:41:03 79.57, 21.93 115.31 0.34 21
4 12/24/2020 04:30:45 -79.81,-168.72 65.05 12/24/2020 04:31:41 -79.81,-168.63 65.10 1.84 56
5 12/26/2020 19:08:33 -79.36, -31.30 64.44 12/26/2020 19:07:21 -79.36, -31.37 64.38 1.44 72
6 12/26/2020 19:57:50 79.69, 138.64 115.10 12/26/2020 19:57:55 79.69, 138.74 115.08 2.05 5
7 12/29/2020 11:24:58 -79.51, 85.61 64.73 12/29/2020 11:24:12 -79.52, 85.67 64.71 1.44 46
8 12/29/2020 12:14:18 79.72,-105.23 114.97 12/29/2020 12:14:50 79.72,-105.30 114.96 1.51 32
9 01/01/2021 03:41:25 -79.54,-158.30 64.91 01/01/2021 03:41:06 -79.54,-158.37 64.88 1.52 19



Historial Predications of SNOs between AURA and NPP
